Terminal Aerodrome Forecast
Issued by NWS Wakefield, VA

Home | Current Version | Previous Version | Text Only | Print | Product List | Glossary On
Versions: 1 2 3 4 5 6 7 8 9 10 11 12 13 14 15 16 17 18 19 20 21 22 23 24 25
000
FTUS41 KAKQ 081507 AAB
TAFRIC
TAF AMD
KRIC 081507Z 0815/0912 34004KT P6SM FEW015 OVC045
     FM081600 31010KT P6SM BKN060
     FM081900 32009KT P6SM BKN120=

USA.gov is the U.S. government's official web portal to all federal, state and local government web resources and services.